Location: Sevilla
(37.3933°N, 5.9839°W)
Time: 05:32:53
(UTC+02:00)

Transit 2A Rocket - Pass Details

Date: 02 July 2024
Orbit: 582 x 910 km, 66.7° (Epoch: 15 July)

Event Time Altitude Azimuth Distance (km) Brightness Sun altitude
Rises 20:46:25 0° 236° (WSW) 3,110 8.7 10.3°
Reaches altitude 10° 20:48:57 10° 248° (WSW) 2,249 8.3 9.8°
Maximum altitude 20:53:27 30° 309° (NW) 1,398 7.8 9.0°
Drops below altitude 10° 20:58:21 10° 9° (N) 2,450 7.8 8.1°
Sets 21:01:14 0° 20° (NNE) 3,437 8.4 7.6°
